Leominster, MA

1:17 AM EST on February 27, 2017 (GMT -0500)
Fitchburg Municipal

Weather History for KFIT - January, 2013

Change the Weather History Date:

Thursday, January 24, 2013

  Actual Average (KORH) Record (KORH)
Temperature  
Mean Temperature 10 °F -  
Max Temperature 19 °F 34 °F 59 °F (1999)
Min Temperature 1 °F 19 °F -14 °F (1948)
Degree Days  
Heating Degree Days 55    
Moisture  
Dew Point -12 °F    
Average Humidity 39    
Maximum Humidity 52    
Minimum Humidity 26    
Precipitation  
Precipitation 0.00 in - - ()
Sea Level Pressure  
Sea Level Pressure 30.14 in    
Wind  
Wind Speed 9 mph (WNW)    
Max Wind Speed 23 mph    
Max Gust Speed 33 mph    
Visibility 10 miles    
Events      
Averages and records for this station are not official NWS values.
T = Trace of Precipitation, MM = Missing Value Source: NWS Daily Summary

Daily Weather History Graph

Daily Weather History Graph

Search for Another Location

Airport or City:

Trip Planner

Search our weather history database for the weather conditions in past years. The results will help you decide how hot, cold, wet, or windy it might be!

Date:

Astronomy

Jan. 24, 2013 Rise Set
Actual Time 7:08 AM EST 4:50 PM EST
Civil Twilight 6:37 AM EST 5:21 PM EST
Nautical Twilight 6:03 AM EST 5:55 PM EST
Astronomical Twilight 5:30 AM EST 6:28 PM EST
Moon 2:49 PM EST (1/24) 5:04 AM EST (1/24)
Length of Visible Light 10h 43m
Length of Day
9h 42m
Waxing Gibbous, 94% of the Moon is Illuminated
Jan 24
Waxing Gibbous
Jan 26
Full
Feb 3
Last Quarter
Feb 10
New
Feb 17
First Quarter

Hourly Weather History & Observations

Time (EST) Temp. Windchill Dew Point Humidity Pressure Visibility Wind Dir Wind Speed Gust Speed Precip Events Conditions
12:52 AM 3.0 °F - -11.0 °F 52% 30.12 in 10.0 mi Calm Calm - N/A   Clear
1:52 AM 3.0 °F -6.4 °F -11.0 °F 52% 30.14 in 10.0 mi North 4.6 mph - N/A   Clear
3:52 AM 1.9 °F -9.2 °F -13.0 °F 50% 30.12 in 10.0 mi NW 5.8 mph - N/A   Clear
4:52 AM 1.0 °F -11.7 °F -13.0 °F 52% 30.12 in 10.0 mi WNW 6.9 mph - N/A   Clear
5:52 AM 1.0 °F -12.9 °F -14.1 °F 49% 30.12 in 10.0 mi NW 8.1 mph - N/A   Clear
6:52 AM 1.0 °F -15.8 °F -13.0 °F 52% 30.12 in 10.0 mi NW 11.5 mph - N/A   Clear
7:52 AM 1.9 °F -14.7 °F -13.0 °F 50% 30.14 in 10.0 mi WNW 11.5 mph - N/A   Clear
8:52 AM 5.0 °F -9.1 °F -11.0 °F 48% 30.14 in 10.0 mi WNW 9.2 mph - N/A   Clear
9:52 AM 8.1 °F -8.4 °F -11.0 °F 42% 30.14 in 10.0 mi NW 13.8 mph 23.0 mph N/A   Clear
10:52 AM 10.9 °F -7.0 °F -11.0 °F 37% 30.14 in 10.0 mi WNW 18.4 mph - N/A   Clear
11:52 AM 15.1 °F 1.1 °F -9.9 °F 32% 30.12 in 10.0 mi WNW 12.7 mph - N/A   Clear
12:52 PM 16.0 °F -0.4 °F -11.0 °F 30% 30.10 in 10.0 mi NW 18.4 mph 26.5 mph N/A   Clear
1:52 PM 19.0 °F 3.6 °F -11.0 °F 26% 30.09 in 10.0 mi WNW 18.4 mph 29.9 mph N/A   Clear
2:52 PM 18.0 °F 0.6 °F -11.0 °F 27% 30.09 in 10.0 mi WNW 23.0 mph 33.4 mph N/A   Clear
3:52 PM 19.0 °F 6.1 °F -11.0 °F 26% 30.10 in 10.0 mi NW 12.7 mph 25.3 mph N/A   Clear
4:52 PM 16.0 °F 6.3 °F -11.9 °F 28% 30.12 in 10.0 mi WNW 6.9 mph - N/A   Clear
5:52 PM 16.0 °F 2.9 °F -9.9 °F 31% 30.13 in 10.0 mi West 11.5 mph 17.3 mph N/A   Clear
6:52 PM 14.0 °F 0.5 °F -9.0 °F 35% 30.17 in 10.0 mi WNW 11.5 mph - N/A   Clear
7:52 PM 12.9 °F 3.8 °F -9.9 °F 35% 30.18 in 10.0 mi West 5.8 mph - N/A   Clear
8:52 PM 12.0 °F 1.5 °F -11.0 °F 35% 30.19 in 10.0 mi West 6.9 mph - N/A   Clear
9:52 PM 12.0 °F -2.7 °F -14.1 °F 30% 30.21 in 10.0 mi NW 12.7 mph 21.9 mph N/A   Clear
10:52 PM 10.0 °F -6.5 °F -13.0 °F 35% 30.24 in 10.0 mi NW 15.0 mph 26.5 mph N/A   Clear
11:52 PM 9.0 °F -6.6 °F -13.0 °F 36% 30.24 in 10.0 mi NW 12.7 mph 27.6 mph N/A   Clear